This is the latest recevied weather packets stored in our database for station/object EA1CUE-WX. If no packets are shown the sender has not sent any weather packets the latest 10 day(s).
| Time | Temp. | Humidity | Pressure | Rain* | Wind** | Luminosity | Snow |
|---|---|---|---|---|---|---|---|
| 1777655025 | 18.89° C | 50% | 1017.1 hPa | 0 mm | - | - | - |
| 1777654725 | 18.89° C | 50% | 1017 hPa | 0 mm | - | - | - |
| 1777654425 | 18.33° C | 50% | 1017 hPa | 0 mm | - | - | - |
| 1777654125 | 18.89° C | 49% | 1017 hPa | 0 mm | - | - | - |
| 1777653825 | 18.89° C | 49% | 1017 hPa | 0 mm | - | - | - |
| 1777653525 | 19.44° C | 49% | 1016.9 hPa | 0 mm | - | - | - |
| 1777653225 | 19.44° C | 49% | 1016.9 hPa | 0 mm | - | - | - |
| 1777652925 | 18.89° C | 49% | 1016.9 hPa | 0 mm | - | - | - |
| 1777652625 | 18.89° C | 49% | 1016.9 hPa | 0 mm | - | - | - |
| 1777652325 | 18.89° C | 49% | 1016.9 hPa | 0 mm | - | - | - |
| 1777652025 | 18.89° C | 49% | 1016.9 hPa | 0 mm | - | - | - |
| 1777651725 | 18.89° C | 49% | 1016.7 hPa | 0 mm | - | - | - |
| 1777651425 | 18.89° C | 49% | 1016.8 hPa | 0 mm | - | - | - |
| 1777651125 | 18.89° C | 49% | 1016.7 hPa | 0 mm | - | - | - |
| 1777650825 | 18.89° C | 49% | 1016.8 hPa | 0 mm | - | - | - |
| 1777650525 | 18.89° C | 49% | 1016.8 hPa | 0 mm | - | - | - |
| 1777650225 | 18.89° C | 48% | 1016.9 hPa | 0 mm | - | - | - |
| 1777649925 | 18.89° C | 49% | 1016.8 hPa | 0 mm | - | - | - |
| 1777649625 | 18.33° C | 48% | 1016.9 hPa | 0 mm | - | - | - |
| 1777649325 | 18.33° C | 48% | 1016.8 hPa | 0 mm | - | - | - |
| 1777649025 | 18.33° C | 48% | 1016.9 hPa | 0 mm | - | - | - |
| 1777648725 | 18.33° C | 48% | 1016.8 hPa | 0 mm | - | - | - |
| 1777648425 | 18.89° C | 47% | 1016.8 hPa | 0 mm | - | - | - |
| 1777648125 | 18.33° C | 45% | 1017 hPa | 0 mm | - | - | - |
| 1777647825 | 17.78° C | 46% | 1016.9 hPa | 0 mm | - | - | - |
* Rain latest hour (hover to see other rain measurements)
** Current wind speed in m/s (hover to see current wind gust speed)